This is the latest recevied weather packets stored in our database for station/object OK0EK-12. If no packets are shown the sender has not sent any weather packets the latest 10 day(s).
| Time | Temp. | Humidity | Pressure | Rain* | Wind** | Luminosity | Snow |
|---|---|---|---|---|---|---|---|
| 1777206450 | 20.56° C | 21% | 1101.9 hPa | - | - | - | - |
| 1777205843 | 18.89° C | 24% | 1102 hPa | - | - | - | - |
| 1777205244 | 15° C | 28% | 1101.9 hPa | - | - | - | - |
| 1777204645 | 20° C | 22% | 1101.8 hPa | - | - | - | - |
| 1777204047 | 18.33° C | 24% | 1101.8 hPa | - | - | - | - |
| 1777203448 | 20° C | 23% | 1101.7 hPa | - | - | - | - |
| 1777202849 | 18.89° C | 25% | 1101.7 hPa | - | - | - | - |
| 1777202249 | 20° C | 23% | 1101.6 hPa | - | - | - | - |
| 1777201650 | 18.89° C | 25% | 1101.6 hPa | - | - | - | - |
| 1777201051 | 15° C | 28% | 1101.7 hPa | - | - | - | - |
| 1777200451 | 17.22° C | 25% | 1101.2 hPa | - | - | - | - |
| 1777199852 | 19.44° C | 25% | 1101.3 hPa | - | - | - | - |
| 1777199254 | 16.67° C | 25% | 1101.1 hPa | - | - | - | - |
| 1777198654 | 18.89° C | 24% | 1101.3 hPa | - | - | - | - |
| 1777198055 | 20.56° C | 25% | 1101 hPa | - | - | - | - |
| 1777197457 | 20.56° C | 36% | 1101.1 hPa | - | - | - | - |
| 1777197427 | 20° C | 38% | 1101.1 hPa | - | - | - | - |
| 1777197405 | 20° C | 40% | 1100.9 hPa | - | - | - | - |
| 1777196199 | 15.56° C | 43% | 1100.9 hPa | - | - | - | - |
| 1777195600 | 15.56° C | 33% | 1100.8 hPa | - | - | - | - |
| 1777194403 | 12.22° C | 34% | 1100.7 hPa | - | - | - | - |
| 1777193804 | 14.44° C | 32% | 1100.7 hPa | - | - | - | - |
| 1777193212 | 14.44° C | 34% | 1100.8 hPa | - | - | - | - |
| 1777192606 | 14.44° C | 34% | 1100.7 hPa | - | - | - | - |
| 1777192007 | 13.89° C | 33% | 1100.5 hPa | - | - | - | - |
* Rain since midnight (hover to see other rain measurements)
** Current wind speed in m/s (hover to see current wind gust speed)